TimeGMT,TemperatureF,Dew PointF,Humidity,Sea Level PressureIn,VisibilityMPH,Wind Direction,Wind SpeedMPH,Gust SpeedMPH,PrecipitationIn,Events,Conditions,WindDirDegrees,DateUTC
12:50 AM,48.2,44.6,87,29.92,6.2,WNW,17.3,28.8,N/A,,Haze,300,2012-12-18 00:50:00
1:50 AM,48.2,44.6,87,29.92,6.2,WNW,17.3,-,N/A,Rain,Light Rain Showers,300,2012-12-18 01:50:00
2:50 AM,48,44,81,29.95,10,NW,17.3,,,Rain,Light Rain Showers,310,2012-12-18 02:50:00
2:50 AM,48.2,44.6,87,29.92,6.2,NW,17.3,29.9,N/A,,Haze,310,2012-12-18 02:50:00
3:50 AM,46.4,44.6,93,29.95,6.2,WSW,5.8,-,N/A,,Haze,240,2012-12-18 03:50:00
4:50 AM,46.4,44.6,93,29.95,6.2,WNW,13.8,-,N/A,,Haze,290,2012-12-18 04:50:00
5:50 AM,46,44,89,30.01,10,West,6.9,,,,Haze,280,2012-12-18 05:50:00
5:50 AM,46.4,44.6,93,29.98,6.2,West,6.9,-,N/A,,Haze,280,2012-12-18 05:50:00
6:50 AM,46.4,42.8,87,30.01,6.2,WNW,10.4,-,N/A,,Haze,300,2012-12-18 06:50:00
7:50 AM,42.8,41.0,93,30.01,6.2,NNW,9.2,-,N/A,,Haze,330,2012-12-18 07:50:00
8:50 AM,44,42,91,30.04,9,WNW,5.8,,,,Haze,300,2012-12-18 08:50:00
8:50 AM,42.8,42.8,100,30.04,6.2,WNW,5.8,-,N/A,,Haze,300,2012-12-18 08:50:00
9:50 AM,44.6,42.8,93,30.04,6.2,West,4.6,-,N/A,,Scattered Clouds,260,2012-12-18 09:50:00
10:50 AM,46.4,44.6,93,30.04,6.2,WSW,3.5,-,N/A,,Haze,240,2012-12-18 10:50:00
11:50 AM,48,46,89,30.05,7,SSW,4.6,,,,Haze,200,2012-12-18 11:50:00
11:50 AM,48.2,46.4,93,30.04,6.2,SSW,4.6,-,N/A,,Haze,200,2012-12-18 11:50:00
12:50 PM,48.2,46.4,93,30.04,5.0,SSW,4.6,-,N/A,,Haze,200,2012-12-18 12:50:00
1:50 PM,48.2,46.4,93,30.01,6.2,SSE,4.6,-,N/A,,Haze,160,2012-12-18 13:50:00
2:50 PM,48,45,87,30.03,7,SSE,5.8,,,,Haze,150,2012-12-18 14:50:00
2:50 PM,48.2,44.6,87,30.01,6.2,SSE,5.8,-,N/A,,Haze,150,2012-12-18 14:50:00
3:50 PM,46.4,44.6,93,30.01,6.2,SE,6.9,-,N/A,,Haze,140,2012-12-18 15:50:00
4:50 PM,46.4,42.8,87,30.01,6.2,SE,9.2,-,N/A,,Haze,140,2012-12-18 16:50:00
5:50 PM,47,44,86,30.02,12,SE,9.2,,,,Partly Cloudy,140,2012-12-18 17:50:00
5:50 PM,46.4,44.6,93,30.01,6.2,SE,9.2,-,N/A,,Mostly Cloudy,140,2012-12-18 17:50:00
6:50 PM,48.2,44.6,87,29.98,6.2,SE,11.5,-,N/A,,Mostly Cloudy,140,2012-12-18 18:50:00
7:50 PM,48.2,44.6,87,29.98,6.2,SE,11.5,24.2,N/A,,Mostly Cloudy,140,2012-12-18 19:50:00
8:50 PM,49,45,81,29.97,12,SE,16.1,,,,Scattered Clouds,140,2012-12-18 20:50:00
8:50 PM,50.0,44.6,82,29.95,6.2,SE,16.1,-,N/A,,Mostly Cloudy,140,2012-12-18 20:50:00
9:50 PM,50.0,44.6,82,29.95,6.2,SE,17.3,-,N/A,Rain,Light Rain,130,2012-12-18 21:50:00
10:50 PM,48.2,46.4,93,29.92,6.2,SE,18.4,29.9,N/A,Rain,Light Rain,130,2012-12-18 22:50:00
11:50 PM,49,46,87,29.91,6,SE,18.4,,,Rain,Light Rain,130,2012-12-18 23:50:00
11:50 PM,50.0,46.4,87,29.89,6.2,SE,18.4,33.4,N/A,Rain,Light Rain,130,2012-12-18 23:50:00